Volver al catálogo

SL-12 R/B(2)

ActivoHEO
NORAD 26393·ROCKET BODY·🇷🇺 Russia

Lanzado Jun 30, 2000 desde Baikonur Cosmodrome

Loading…

Próximos Pases (próximas 24 horas)

TLE

ActualizadoSource: Space-Track

Época: Sep 13, 2026, 20:48 UTC

1 26393U 00035D   26256.86714076  .00000109  00000-0  00000-0 0  9991
2 26393  61.8204 164.4521 5185898 291.6192  22.0986  1.45659391139387

Sigue SL-12 R/B(2) en tiempo real con AllMySat

Download on the App Store